Location: Palmerston North
(40.3500°S, 175.6170°E)
Time: 23:41:45
(UTC+13:00)

Cosmos 1741 Rocket - Pass Details

Date: 24 January 2019
Orbit: 761 x 783 km, 74.0° (Epoch: 21 February)

Event Time Altitude Azimuth Distance (km) Brightness Sun altitude
Rises 21:14:50 0° 341° (NNW) 3,256 7.1 -6.1°
Reaches altitude 10° 21:17:11 10° 340° (NNW) 2,338 6.4 -6.4°
Maximum altitude 21:22:32 84° 251° (WSW) 801 4.2 -7.3°
Drops below altitude 10° 21:27:57 10° 162° (SSE) 2,372 6.8 -8.2°
Sets 21:30:22 0° 161° (SSE) 3,307 7.5 -8.5°
